User: anonymous   Login
Location: Unspecified
(0.0000°N, 0.0000°E)
Time: 16:38:52
(UTC+00:00)
Language:

NOSS 3-4 (A) - Orbit

View from above orbital plane
View from above orbital plane
View from above satellite
View from above satellite

Ground track
Ground track

The orbit data is extracted from the following two-line orbital elements,

1 31701U 07027A   17081.79705870 0.00000000  00000-0  00000-0 0    01
2 31701  63.4029 303.6404 0179000  24.7948 335.2052 13.40726908    09
Epoch (UTC): 22 March 2017 19:07:45
Eccentricity: 0.0179000
inclination: 63.4029°
perigee height: 972 km
apogee height: 1240 km
right ascension of ascending node: 303.6404°
argument of perigee: 24.7948°
revolutions per day: 13.40726908
mean anomaly at epoch: 335.2052°
orbit number at epoch: 0

The dashed part of the orbit path shows where the satellite is in the earth's shadow,  

DLR